Location: Gro� Glienicke
(52.4675°N, 13.1079°E)
Time: 02:44:51
(UTC+00:00)

Cosmos 2333 Rocket - Pass Details

Date: 06 July 2020
Orbit: 837 x 864 km, 70.8° (Epoch: 04 August)

Event Time Altitude Azimuth Distance (km) Brightness Sun altitude
Rises 20:28:42 0° 193° (SSW) 3,394 5.0 -6.9°
Reaches altitude 10° 20:31:10 10° 189° (S) 2,467 4.2 -7.1°
Maximum altitude 20:36:40 55° 113° (ESE) 1,023 2.4 -7.6°
Drops below altitude 10° 20:42:15 10° 38° (NE) 2,501 4.9 -8.1°
Sets 20:44:46 0° 34° (NE) 3,445 5.7 -8.4°
